User: anonymous   Login
Location: Dehesa de la Cepeda
(40.6574°N, 4.3013°W)
Time: 11:44:23
(UTC+00:00)
Language:

Cosmos 1933 - Orbit

View from above orbital plane
View from above orbital plane
View from above satellite
View from above satellite

Ground track
Ground track

The orbit data is extracted from the following two-line orbital elements,

1 18958U 88020A   20270.80511207  .00000724  00000-0  50623-4 0  9997
2 18958  82.5321  27.7149 0011947 159.8939 200.2760 15.03763937771488
Epoch (UTC): 26 September 2020 19:19:21
Eccentricity: 0.0011947
inclination: 82.5321°
perigee height: 547 km
apogee height: 563 km
right ascension of ascending node: 27.7149°
argument of perigee: 159.8939°
revolutions per day: 15.03763937
mean anomaly at epoch: 200.2760°
orbit number at epoch: 77148

The dashed part of the orbit path shows where the satellite is in the earth's shadow,  

DLR